Location: Moscow Pond
(43.6842°N, 73.2366°W)
Time: 20:55:50
(UTC+00:00)

Cosmos 2219 Rocket - Pass Details

Date: 08 November 2025
Orbit: 825 x 847 km, 71.0° (Epoch: 05 December)

Event Time Altitude Azimuth Distance (km) Brightness Sun altitude
Exits shadow 08:00:24 23° 46° (NE) 1,742 4.2 -39.4°
Drops below altitude 10° 08:02:32 10° 36° (NE) 2,472 5.1 -39.0°
Sets 08:05:05 0° 31° (NNE) 3,413 5.9 -38.6°
